< < Back
Terminal Aerodrome Forecast


Current Version              Previous Versions:   1  2  3  4  5  6  7  8  9  

Terminal Aerodrome Forecast

956
FTUS42 KFFC 221740
TAFMCN
TAF
KMCN 221740Z 2218/2318 04006KT P6SM FEW045
     FM230200 00000KT P6SM SKC
     FM231400 09007KT P6SM FEW045=

Latest METAR

085
SAUS80 KWBC 231600
MTRMCN
METAR KMCN 231553Z 10009G17KT 10SM CLR 26/11 A3036 RMK AO2 SLP278
T02610111


USA.gov is the U.S. government's official web portal to all federal, state and local government web resources and services.